User: anonymous   Login
Location: Unspecified
(0.0000°N, 0.0000°E)
Time: 02:52:39
(UTC+00:00)
Language:

OPTUS 1C - Orbit

View from above orbital plane
View from above orbital plane
View from above satellite
View from above satellite

Ground track
Ground track

The orbit data is extracted from the following two-line orbital elements,

1 27831U 03028B   16035.85270711 -.00000150 +00000-0 +00000-0 0  9997
2 27831 000.0498 252.6277 0002100 056.7271 288.0449 01.00271712015109
Epoch (UTC): 04 February 2016 20:27:53
Eccentricity: 0.0002100
inclination: 0.0498°
perigee height: 35777 km
apogee height: 35795 km
right ascension of ascending node: 252.6277°
argument of perigee: 56.7271°
revolutions per day: 1.00271712
mean anomaly at epoch: 288.0449°
orbit number at epoch: 1510

The dashed part of the orbit path shows where the satellite is in the earth's shadow,  

DLR